Regional Weather Roundup
Issued by NWS

Home | Current Version | Previous Version | Graphics & Text | Print | Product List | Glossary On
Versions: 1 2 3 4 5 6 7 8 9 10 11 12 13 14 15 16 17 18 19 20 21 22 23 24 25 26 27
000
ASUS45 KBOI 250010
RWRID

IDAHO REGIONAL WEATHER ROUNDUP
NATIONAL WEATHER SERVICE BOISE ID
600 PM MDT FRI MAR 24 2017

NOTE: "FAIR" INDICATES FEW OR NO CLOUDS BELOW 12000 FEET
WITH NO SIGNIFICANT WEATHER AND/OR OBSTRUCTIONS TO VISIBILITY

IDZ012-014-250100-
SOUTHWEST IDAHO


CITY           SKY/WX    TMP DP  RH WIND       PRES   REMARKS
BOISE          LGT RAIN  49  43  80 E13       29.98S
CALDWELL       LGT RAIN  50  44  80 E14       29.96F
MOUNTAIN HOME  CLOUDY    50  50 100 NE5       30.00R
$$

IDZ016-017-250100-
SOUTHCENTRAL IDAHO


CITY           SKY/WX    TMP DP  RH WIND       PRES   REMARKS
BURLEY         CLOUDY    54  30  40 SE7G18    29.99F
JEROME         LGT RAIN  53  40  61 SE15      29.98F
TWIN FALLS     LGT RAIN  53  38  56 S13       29.97F
$$

IDZ019>023-250100-
SOUTHEAST IDAHO


CITY           SKY/WX    TMP DP  RH WIND       PRES   REMARKS
IDAHO FALLS    CLOUDY    55  26  32 SW20G25   30.01F
POCATELLO      PTSUNNY   54  25  32 S24G35    30.03S
REXBURG        CLOUDY    53  23  31 S17G26    30.01S
$$

IDZ006-010-011-018-031-032-250100-
CENTRAL IDAHO MOUNTAINS


CITY           SKY/WX    TMP DP  RH WIND       PRES   REMARKS
MCCALL         LGT RAIN  36  32  85 S12       29.93S WCI  28
HAILEY         LGT RAIN  37  36  93 NW12      30.06S WCI  30
STANLEY          N/A     35  32  88 SE12G21   29.99S WCI  27
SALMON         CLOUDY    54  28  37 SW21G36   29.88R
CHALLIS        CLOUDY    47  31  53 S13       29.95S
$$

IDZ002-004-006-007-026-250100-
NORTHERN IDAHO


CITY           SKY/WX    TMP DP  RH WIND       PRES   REMARKS
LEWISTON       CLOUDY    52  39  61 SW15      29.89R
LOWELL           N/A     46  43  89 N3        29.91R
COEUR D`ALENE  LGT RAIN  43  41  93 SW7       29.86R
MULLAN PASS    SNOW      31  31 100 VRB5      29.81R VSB 1/4 WCI  26
$$




USA.gov is the U.S. government's official web portal to all federal, state and local government web resources and services.